This is the latest recevied weather packets stored in our database for station/object KJ5EHN. If no packets are shown the sender has not sent any weather packets the latest 10 day(s).
| Time | Temp. | Humidity | Pressure | Rain* | Wind** | Luminosity | Snow |
|---|---|---|---|---|---|---|---|
| 1777913856 | 25° C | 52% | 1011.7 hPa | 0 mm | - | - | - |
| 1777913553 | 25° C | 52% | 1012.1 hPa | 0 mm | - | - | - |
| 1777913249 | 25° C | 52% | 1012 hPa | 0 mm | - | - | - |
| 1777912947 | 25° C | 50% | 1012.2 hPa | 0 mm | - | - | - |
| 1777912642 | 24.44° C | 52% | 1012.4 hPa | 0 mm | - | - | - |
| 1777912338 | 23.89° C | 52% | 1012.1 hPa | 0 mm | - | - | - |
| 1777912034 | 23.89° C | 52% | 1012.5 hPa | 0 mm | - | - | - |
| 1777911731 | 23.89° C | 51% | 1012.2 hPa | 0 mm | - | - | - |
| 1777911428 | 23.89° C | 52% | 1012.4 hPa | 0 mm | - | - | - |
| 1777911125 | 23.89° C | 52% | 1012.3 hPa | 0 mm | - | - | - |
| 1777910822 | 23.89° C | 52% | 1012.3 hPa | 0 mm | - | - | - |
| 1777910519 | 23.89° C | 51% | 1012.3 hPa | 0 mm | - | - | - |
| 1777910215 | 23.33° C | 53% | 1012.2 hPa | 0 mm | - | - | - |
| 1777909913 | 22.78° C | 52% | 1012.2 hPa | 0 mm | - | - | - |
| 1777909609 | 22.78° C | 52% | 1012.2 hPa | 0 mm | - | - | - |
| 1777909307 | 23.33° C | 52% | 1012.4 hPa | 0 mm | - | - | - |
| 1777909004 | 23.33° C | 53% | 1012.4 hPa | 0 mm | - | - | - |
| 1777908702 | 22.78° C | 52% | 1012.4 hPa | 0 mm | - | - | - |
| 1777908399 | 22.78° C | 54% | 1012.4 hPa | 0 mm | - | - | - |
| 1777908096 | 22.78° C | 54% | 1012.7 hPa | 0 mm | - | - | - |
| 1777907792 | 22.22° C | 56% | 1012.6 hPa | 0 mm | - | - | - |
| 1777907487 | 22.22° C | 55% | 1012.5 hPa | 0 mm | - | - | - |
| 1777907184 | 22.22° C | 54% | 1012.8 hPa | 0 mm | - | - | - |
| 1777906881 | 22.22° C | 56% | 1012.6 hPa | 0 mm | - | - | - |
| 1777906578 | 21.67° C | 58% | 1012.9 hPa | 0 mm | - | - | - |
* Rain latest hour (hover to see other rain measurements)
** Current wind speed in m/s (hover to see current wind gust speed)